,,Stat6,,Stat2,,Stat8,,Stat9,,Stat10,,Wind1,,Wind1,
time,status,PA1M_AVG,status,PR1M_SUM,status,RH1M_AVG,status,SR1M_AVG,status,TA1M_AVG,status,W1dAve1m,status,W1sAve1m,
2004-06-28, 00:00:00,VALID,919.294,VALID,0,VALID,99.6518,VALID,0.0339617,VALID,19.9282,VALID,22,VALID,0.561773,
2004-06-28, 00:01:00,VALID,919.301,VALID,0,VALID,99.5959,VALID,0.0169808,VALID,19.9315,VALID,19,VALID,0.658346,
2004-06-28, 00:02:00,VALID,919.292,VALID,0,VALID,99.5361,VALID,0.0339617,VALID,19.9084,VALID,19,VALID,0.752725,
2004-06-28, 00:03:00,VALID,919.28,VALID,0,VALID,99.4853,VALID,0.0339617,VALID,19.9024,VALID,22,VALID,0.615513,
2004-06-28, 00:04:00,VALID,919.268,VALID,0,VALID,99.545,VALID,0.0169808,VALID,19.9121,VALID,21,VALID,0.778577,
2004-06-28, 00:05:00,VALID,919.275,VALID,0,VALID,99.5399,VALID,0.0169808,VALID,19.922,VALID,33,VALID,0.775213,
2004-06-28, 00:06:00,VALID,919.268,VALID,0,VALID,99.4128,VALID,0,VALID,19.9019,VALID,33,VALID,0.498365,
2004-06-28, 00:07:00,VALID,919.25,VALID,0,VALID,99.4496,VALID,0,VALID,19.9118,VALID,41,VALID,0.8254,
2004-06-28, 00:08:00,VALID,919.246,VALID,0,VALID,99.4853,VALID,0,VALID,19.9156,VALID,51,VALID,0.781622,
2004-06-28, 00:09:00,VALID,919.221,VALID,0,VALID,99.3314,VALID,0,VALID,19.9188,VALID,53,VALID,0.847098,
2004-06-28, 00:10:00,VALID,919.219,VALID,0,VALID,99.2627,VALID,0,VALID,19.8989,VALID,63,VALID,1.1635,
2004-06-28, 00:11:00,VALID,919.199,VALID,0,VALID,99.3352,VALID,0.0169808,VALID,19.9223,VALID,64,VALID,1.16006,
2004-06-28, 00:12:00,VALID,919.192,VALID,0,VALID,99.1763,VALID,0,VALID,19.9352,VALID,65,VALID,0.966619,
2004-06-28, 00:13:00,VALID,919.202,VALID,0,VALID,99.0364,VALID,-0.0169808,VALID,19.9183,VALID,63,VALID,0.82867,
2004-06-28, 00:14:00,VALID,919.217,VALID,0,VALID,98.8914,VALID,0,VALID,19.9215,VALID,71,VALID,0.744186,
2004-06-28, 00:15:00,VALID,919.231,VALID,0,VALID,98.8113,VALID,0.0169808,VALID,19.9253,VALID,72,VALID,0.710007,
2004-06-28, 00:16:00,VALID,919.236,VALID,0,VALID,98.7592,VALID,-0.0169808,VALID,19.922,VALID,75,VALID,0.768973,
2004-06-28, 00:17:00,VALID,919.253,VALID,0,VALID,98.4146,VALID,0,VALID,19.8768,VALID,72,VALID,0.719866,
2004-06-28, 00:18:00,VALID,919.251,VALID,0,VALID,97.663,VALID,0,VALID,19.7512,VALID,71,VALID,0.480564,
2004-06-28, 00:19:00,VALID,919.248,VALID,0,VALID,97.4024,VALID,0,VALID,19.6282,VALID,71,VALID,0.453658,
2004-06-28, 00:20:00,VALID,919.248,VALID,0,VALID,97.9593,VALID,0,VALID,19.6183,VALID,71,VALID,0.340451,
2004-06-28, 00:21:00,VALID,919.23,VALID,0,VALID,98.3891,VALID,-0.0169808,VALID,19.631,VALID,71,VALID,0.0736607,
2004-06-28, 00:22:00,VALID,919.212,VALID,0,VALID,98.4858,VALID,0.0169808,VALID,19.6305,VALID,71,VALID,0.000381098,
2004-06-28, 00:23:00,VALID,919.199,VALID,0,VALID,98.3853,VALID,0.0339617,VALID,19.5984,VALID,71,VALID,0.316016,
2004-06-28, 00:24:00,VALID,919.192,VALID,0,VALID,98.5506,VALID,0.0509425,VALID,19.5664,VALID,104,VALID,0.515425,
2004-06-28, 00:25:00,VALID,919.18,VALID,0,VALID,98.7439,VALID,0.0169808,VALID,19.5597,VALID,160,VALID,0.580305,
2004-06-28, 00:26:00,VALID,919.182,VALID,0,VALID,98.9245,VALID,0.0339617,VALID,19.5791,VALID,163,VALID,0.492369,
2004-06-28, 00:27:00,VALID,919.163,VALID,0,VALID,99.0618,VALID,0.0169808,VALID,19.5726,VALID,163,VALID,0.460938,
2004-06-28, 00:28:00,VALID,919.172,VALID,0,VALID,99.2373,VALID,0.0509425,VALID,19.5915,VALID,163,VALID,0.197129,
2004-06-28, 00:29:00,VALID,919.174,VALID,0,VALID,99.3924,VALID,0.0679233,VALID,19.6434,VALID,163,VALID,0.150343,
2004-06-28, 00:30:00,VALID,919.157,VALID,0,VALID,99.4242,VALID,0.0509425,VALID,19.6789,VALID,163,VALID,0,
2004-06-28, 00:31:00,VALID,919.143,VALID,0,VALID,99.5069,VALID,0.0509425,VALID,19.7114,VALID,163,VALID,0.271577,
2004-06-28, 00:32:00,VALID,919.152,VALID,0,VALID,99.4776,VALID,0.0509425,VALID,19.7631,VALID,163,VALID,0.147195,
2004-06-28, 00:33:00,VALID,919.169,VALID,0,VALID,99.3288,VALID,0.0169808,VALID,19.7924,VALID,163,VALID,0.0772569,
2004-06-28, 00:34:00,VALID,919.168,VALID,0,VALID,98.3472,VALID,0.0339617,VALID,19.696,VALID,110,VALID,0.265244,
2004-06-28, 00:35:00,VALID,919.158,VALID,0,VALID,97.8487,VALID,0.0169808,VALID,19.5758,VALID,51,VALID,0.493118,
2004-06-28, 00:36:00,VALID,919.15,VALID,0,VALID,98.4667,VALID,-0.0169808,VALID,19.6322,VALID,15,VALID,0.77798,
2004-06-28, 00:37:00,VALID,919.126,VALID,0,VALID,98.6994,VALID,-0.0679233,VALID,19.6774,VALID,29,VALID,1.01804,
2004-06-28, 00:38:00,VALID,919.108,VALID,0,VALID,98.8291,VALID,-0.0679233,VALID,19.7325,VALID,26,VALID,0.876367,
2004-06-28, 00:39:00,VALID,919.085,VALID,0,VALID,98.6549,VALID,-0.0849042,VALID,19.7489,VALID,28,VALID,0.677326,
2004-06-28, 00:40:00,VALID,919.068,VALID,0,VALID,98.6422,VALID,-0.0339617,VALID,19.7646,VALID,38,VALID,0.540516,
2004-06-28, 00:41:00,VALID,919.057,VALID,0,VALID,98.7503,VALID,-0.0339617,VALID,19.8165,VALID,50,VALID,0.606944,
2004-06-28, 00:42:00,VALID,919.052,VALID,0,VALID,98.2442,VALID,-0.0339617,VALID,19.8289,VALID,72,VALID,0.404861,
2004-06-28, 00:43:00,VALID,919.069,VALID,0,VALID,97.7546,VALID,-0.0509425,VALID,19.7842,VALID,72,VALID,0.372692,
2004-06-28, 00:44:00,VALID,919.086,VALID,0,VALID,97.7037,VALID,-0.0339617,VALID,19.7422,VALID,110,VALID,0.623285,
2004-06-28, 00:45:00,VALID,919.102,VALID,0,VALID,97.9263,VALID,-0.0849042,VALID,19.7161,VALID,152,VALID,0.733789,
2004-06-28, 00:46:00,VALID,919.124,VALID,0,VALID,98.2607,VALID,-0.0849042,VALID,19.7422,VALID,142,VALID,0.305367,
2004-06-28, 00:47:00,VALID,919.143,VALID,0,VALID,98.0623,VALID,-0.0339617,VALID,19.7422,VALID,142,VALID,0.121466,
2004-06-28, 00:48:00,VALID,919.163,VALID,0,VALID,97.6999,VALID,-0.0679233,VALID,19.6968,VALID,142,VALID,0,
2004-06-28, 00:49:00,VALID,919.152,VALID,0,VALID,97.8652,VALID,-0.0169808,VALID,19.6868,VALID,143,VALID,0.0933949,
2004-06-28, 00:50:00,VALID,919.148,VALID,0,VALID,97.925,VALID,-0.0339617,VALID,19.6935,VALID,160,VALID,0.601944,
2004-06-28, 00:51:00,VALID,919.142,VALID,0,VALID,98.1005,VALID,-0.0339617,VALID,19.696,VALID,184,VALID,0.711124,
2004-06-28, 00:52:00,VALID,919.14,VALID,0,VALID,98.3332,VALID,0.0339617,VALID,19.7077,VALID,186,VALID,0.477307,
2004-06-28, 00:53:00,VALID,919.144,VALID,0,VALID,98.5303,VALID,0.0509425,VALID,19.7405,VALID,186,VALID,0.0266426,
2004-06-28, 00:54:00,VALID,919.171,VALID,0,VALID,98.6562,VALID,0.0339617,VALID,19.7862,VALID,186,VALID,0.201042,
2004-06-28, 00:55:00,VALID,919.143,VALID,0,VALID,98.6409,VALID,0,VALID,19.8018,VALID,154,VALID,0.144259,
2004-06-28, 00:56:00,VALID,919.131,VALID,0,VALID,98.3955,VALID,0.0849042,VALID,19.7822,VALID,32,VALID,0.787729,
2004-06-28, 00:57:00,VALID,919.133,VALID,0,VALID,98.192,VALID,0.0509425,VALID,19.7566,VALID,31,VALID,0.0272529,
2004-06-28, 00:58:00,VALID,919.113,VALID,0,VALID,98.2048,VALID,0.0509425,VALID,19.7467,VALID,31,VALID,0,
2004-06-28, 00:59:00,VALID,919.12,VALID,0,VALID,98.3077,VALID,0.0339617,VALID,19.7569,VALID,66,VALID,0.376524,
2004-06-28, 01:00:00,VALID,919.11,VALID,0,VALID,98.5519,VALID,0.0679233,VALID,19.7795,VALID,194,VALID,0.884718,
2004-06-28, 01:01:00,VALID,919.096,VALID,0,VALID,98.6511,VALID,0.0169808,VALID,19.7988,VALID,210,VALID,0.301067,
2004-06-28, 01:02:00,VALID,919.073,VALID,0,VALID,98.5455,VALID,0.0509425,VALID,19.8018,VALID,174,VALID,0.274306,
2004-06-28, 01:03:00,VALID,919.053,VALID,0,VALID,98.4362,VALID,0.0679233,VALID,19.7857,VALID,131,VALID,0.541903,
2004-06-28, 01:04:00,VALID,919.08,VALID,0,VALID,98.5379,VALID,0,VALID,19.7762,VALID,108,VALID,0.272892,
2004-06-28, 01:05:00,VALID,919.098,VALID,0,VALID,98.4578,VALID,0.0509425,VALID,19.7762,VALID,108,VALID,0.00725446,
2004-06-28, 01:06:00,VALID,919.096,VALID,0,VALID,98.3929,VALID,0.0169808,VALID,19.7571,VALID,108,VALID,0,
2004-06-28, 01:07:00,VALID,919.096,VALID,0,VALID,98.3637,VALID,-0.0679233,VALID,19.7454,VALID,108,VALID,0,
2004-06-28, 01:08:00,VALID,919.081,VALID,0,VALID,98.3561,VALID,-0.0679233,VALID,19.7325,VALID,108,VALID,0.0321801,
2004-06-28, 01:09:00,VALID,919.077,VALID,0,VALID,98.2505,VALID,-0.0339617,VALID,19.693,VALID,108,VALID,0.298209,
2004-06-28, 01:10:00,VALID,919.091,VALID,0,VALID,98.295,VALID,-0.0339617,VALID,19.6806,VALID,108,VALID,0.00426136,
2004-06-28, 01:11:00,VALID,919.091,VALID,0,VALID,98.3891,VALID,-0.0339617,VALID,19.6607,VALID,108,VALID,0.00558036,
2004-06-28, 01:12:00,VALID,919.081,VALID,0,VALID,98.7541,VALID,-0.0509425,VALID,19.6836,VALID,108,VALID,0.119549,
2004-06-28, 01:13:00,VALID,919.074,VALID,0,VALID,98.955,VALID,-0.0509425,VALID,19.7323,VALID,108,VALID,0,
2004-06-28, 01:14:00,VALID,919.058,VALID,0,VALID,98.7948,VALID,-0.0849042,VALID,19.7834,VALID,87,VALID,0.258371,
2004-06-28, 01:15:00,VALID,919.044,VALID,0,VALID,98.1653,VALID,-0.0849042,VALID,19.7837,VALID,46,VALID,0.320858,
2004-06-28, 01:16:00,VALID,919.041,VALID,0,VALID,97.6872,VALID,-0.0339617,VALID,19.7355,VALID,45,VALID,0.373666,
2004-06-28, 01:17:00,VALID,919.027,VALID,0,VALID,97.7215,VALID,-0.0679233,VALID,19.7355,VALID,45,VALID,0.390253,
2004-06-28, 01:18:00,VALID,918.993,VALID,0,VALID,97.7203,VALID,-0.0849042,VALID,19.7094,VALID,45,VALID,0.539807,
2004-06-28, 01:19:00,VALID,918.955,VALID,0,VALID,97.5969,VALID,-0.0339617,VALID,19.6739,VALID,45,VALID,0.659268,
2004-06-28, 01:20:00,VALID,918.92,VALID,0,VALID,97.9352,VALID,-0.0509425,VALID,19.6449,VALID,45,VALID,0.731585,
2004-06-28, 01:21:00,VALID,918.896,VALID,0,VALID,98.3573,VALID,-0.0339617,VALID,19.6704,VALID,46,VALID,0.542773,
2004-06-28, 01:22:00,VALID,918.862,VALID,0,VALID,98.5125,VALID,0,VALID,19.6861,VALID,46,VALID,0.43285,
2004-06-28, 01:23:00,VALID,918.836,VALID,0,VALID,98.5074,VALID,0.0339617,VALID,19.7281,VALID,46,VALID,0.284268,
2004-06-28, 01:24:00,VALID,918.811,VALID,0,VALID,98.2137,VALID,0.0169808,VALID,19.7405,VALID,46,VALID,0.00872093,
2004-06-28, 01:25:00,VALID,918.791,VALID,0,VALID,97.972,VALID,0,VALID,19.7243,VALID,46,VALID,0.0093006,
2004-06-28, 01:26:00,VALID,918.783,VALID,0,VALID,98.0509,VALID,0.0169808,VALID,19.7286,VALID,46,VALID,0.488948,
2004-06-28, 01:27:00,VALID,918.769,VALID,0,VALID,97.8118,VALID,0.0169808,VALID,19.7124,VALID,46,VALID,0.477706,
2004-06-28, 01:28:00,VALID,918.76,VALID,0,VALID,97.4952,VALID,0.0169808,VALID,19.6342,VALID,46,VALID,0.404726,
2004-06-28, 01:29:00,VALID,918.751,VALID,0,VALID,97.4952,VALID,0.0169808,VALID,19.58,VALID,46,VALID,0.0815972,
2004-06-28, 01:30:00,VALID,918.733,VALID,0,VALID,97.6007,VALID,0.0169808,VALID,19.5346,VALID,46,VALID,0,
2004-06-28, 01:31:00,VALID,918.711,VALID,0,VALID,97.8296,VALID,0.0169808,VALID,19.5016,VALID,46,VALID,0.350632,
2004-06-28, 01:32:00,VALID,918.698,VALID,0,VALID,97.9492,VALID,0.0339617,VALID,19.4795,VALID,46,VALID,0.575408,
2004-06-28, 01:33:00,VALID,918.668,VALID,0,VALID,98.1208,VALID,0.0169808,VALID,19.4539,VALID,44,VALID,0.629383,
2004-06-28, 01:34:00,VALID,918.656,VALID,0,VALID,98.0623,VALID,0.0339617,VALID,19.4119,VALID,44,VALID,0.432884,
2004-06-28, 01:35:00,VALID,918.647,VALID,0,VALID,98.0433,VALID,0,VALID,19.3473,VALID,44,VALID,0.442224,
2004-06-28, 01:36:00,VALID,918.633,VALID,0,VALID,98.3879,VALID,0.0509425,VALID,19.3208,VALID,44,VALID,0.343568,
2004-06-28, 01:37:00,VALID,918.62,VALID,0,VALID,98.6078,VALID,0.0169808,VALID,19.3469,VALID,44,VALID,0.118786,
2004-06-28, 01:38:00,VALID,918.596,VALID,0,VALID,98.735,VALID,0.0169808,VALID,19.3568,VALID,43,VALID,0.384527,
2004-06-28, 01:39:00,VALID,918.588,VALID,0,VALID,98.6638,VALID,0,VALID,19.3575,VALID,44,VALID,0.3038,
2004-06-28, 01:40:00,VALID,918.578,VALID,0,VALID,98.5201,VALID,0.0339617,VALID,19.3247,VALID,44,VALID,0.336458,
2004-06-28, 01:41:00,VALID,918.574,VALID,0,VALID,98.4006,VALID,0,VALID,19.2823,VALID,44,VALID,0.25327,
2004-06-28, 01:42:00,VALID,918.562,VALID,0,VALID,98.2645,VALID,0.0169808,VALID,19.2373,VALID,44,VALID,0.362165,
2004-06-28, 01:43:00,VALID,918.564,VALID,0,VALID,98.0712,VALID,0.0339617,VALID,19.1628,VALID,43,VALID,0.0722656,
2004-06-28, 01:44:00,VALID,918.553,VALID,0,VALID,98.1869,VALID,0.0169808,VALID,19.1147,VALID,43,VALID,0,
2004-06-28, 01:45:00,VALID,918.561,VALID,0,VALID,98.3891,VALID,0.0509425,VALID,19.0958,VALID,43,VALID,0.0842634,
2004-06-28, 01:46:00,VALID,918.583,VALID,0,VALID,98.7299,VALID,0.0339617,VALID,19.1055,VALID,43,VALID,0.192073,
2004-06-28, 01:47:00,VALID,918.615,VALID,0,VALID,98.969,VALID,0.0509425,VALID,19.1147,VALID,43,VALID,0,
2004-06-28, 01:48:00,VALID,918.625,VALID,0,VALID,99.0605,VALID,0.0169808,VALID,19.1211,VALID,43,VALID,0,
2004-06-28, 01:49:00,VALID,918.631,VALID,0,VALID,99.1852,VALID,0.0169808,VALID,19.1345,VALID,43,VALID,0,
2004-06-28, 01:50:00,VALID,918.624,VALID,0,VALID,99.189,VALID,0,VALID,19.1377,VALID,43,VALID,0,
2004-06-28, 01:51:00,VALID,918.608,VALID,0,VALID,99.2106,VALID,0.0339617,VALID,19.1345,VALID,43,VALID,0,
2004-06-28, 01:52:00,VALID,918.572,VALID,0,VALID,99.4026,VALID,0.0169808,VALID,19.1509,VALID,43,VALID,0,
2004-06-28, 01:53:00,VALID,918.557,VALID,0,VALID,99.4636,VALID,0,VALID,19.1797,VALID,44,VALID,0.211301,
2004-06-28, 01:54:00,VALID,918.529,VALID,0,VALID,98.8469,VALID,0.0169808,VALID,19.1345,VALID,43,VALID,0.316034,
2004-06-28, 01:55:00,VALID,918.521,VALID,0,VALID,98.9512,VALID,0.0169808,VALID,19.0898,VALID,43,VALID,0.306176,
2004-06-28, 01:56:00,VALID,918.517,VALID,0,VALID,99.3314,VALID,0.0169808,VALID,19.0926,VALID,43,VALID,0.299237,
2004-06-28, 01:57:00,VALID,918.515,VALID,0,VALID,99.2347,VALID,0.0169808,VALID,19.1126,VALID,43,VALID,0.211648,
2004-06-28, 01:58:00,VALID,918.509,VALID,0,VALID,99.086,VALID,0.0169808,VALID,19.0734,VALID,43,VALID,0.113095,
2004-06-28, 01:59:00,VALID,918.489,VALID,0,VALID,99.1063,VALID,0,VALID,19.0404,VALID,43,VALID,0.196987,
2004-06-28, 02:00:00,VALID,918.482,VALID,0,VALID,99.2068,VALID,0,VALID,19.0545,VALID,43,VALID,0.270647,
2004-06-28, 02:01:00,VALID,918.475,VALID,0,VALID,98.7655,VALID,0,VALID,18.9964,VALID,43,VALID,0.293636,
2004-06-28, 02:02:00,VALID,918.472,VALID,0,VALID,98.5303,VALID,0,VALID,18.909,VALID,43,VALID,0.258929,
2004-06-28, 02:03:00,VALID,918.458,VALID,0,VALID,98.5494,VALID,0,VALID,18.8313,VALID,43,VALID,0.127418,
2004-06-28, 02:04:00,VALID,918.44,VALID,0,VALID,98.8545,VALID,0,VALID,18.829,VALID,43,VALID,0.213728,
2004-06-28, 02:05:00,VALID,918.439,VALID,0,VALID,99.0173,VALID,0,VALID,18.8092,VALID,43,VALID,0.17378,
2004-06-28, 02:06:00,VALID,918.43,VALID,0,VALID,99.4649,VALID,0,VALID,18.8348,VALID,43,VALID,0.0919744,
2004-06-28, 02:07:00,VALID,918.409,VALID,0,VALID,99.5336,VALID,0,VALID,18.8609,VALID,43,VALID,0.0310497,
2004-06-28, 02:08:00,VALID,918.413,VALID,0,VALID,99.6709,VALID,0,VALID,18.874,VALID,43,VALID,0.309896,
2004-06-28, 02:09:00,VALID,918.437,VALID,0,VALID,99.9247,VALID,-0.0169808,VALID,18.9192,VALID,44,VALID,0.446094,
2004-06-28, 02:10:00,VALID,918.455,VALID,0,VALID,99.9901,VALID,0,VALID,18.9741,VALID,61,VALID,0.519626,
2004-06-28, 02:11:00,VALID,918.462,VALID,0,VALID,99.943,VALID,0,VALID,18.9934,VALID,75,VALID,0.667039,
2004-06-28, 02:12:00,VALID,918.456,VALID,0,VALID,100,VALID,0,VALID,19.0682,VALID,78,VALID,0.938953,
2004-06-28, 02:13:00,VALID,918.47,VALID,0,VALID,100,VALID,0,VALID,19.1613,VALID,79,VALID,0.96733,
2004-06-28, 02:14:00,VALID,918.492,VALID,0,VALID,100,VALID,0,VALID,19.2515,VALID,79,VALID,0.855469,
2004-06-28, 02:15:00,VALID,918.518,VALID,0,VALID,99.8891,VALID,0,VALID,19.3255,VALID,79,VALID,0.616097,
2004-06-28, 02:16:00,VALID,918.545,VALID,0,VALID,99.0567,VALID,0,VALID,19.3031,VALID,79,VALID,0.352834,
2004-06-28, 02:17:00,VALID,918.559,VALID,0,VALID,98.585,VALID,0,VALID,19.2388,VALID,79,VALID,0.468387,
2004-06-28, 02:18:00,VALID,918.568,VALID,0,VALID,98.4387,VALID,-0.0169808,VALID,19.1867,VALID,82,VALID,0.543679,
2004-06-28, 02:19:00,VALID,918.557,VALID,0,VALID,98.4057,VALID,-0.0169808,VALID,19.1477,VALID,96,VALID,0.668255,
2004-06-28, 02:20:00,VALID,918.568,VALID,0,VALID,98.5608,VALID,0.0169808,VALID,19.1288,VALID,96,VALID,0.639236,
2004-06-28, 02:21:00,VALID,918.559,VALID,0,VALID,98.3764,VALID,0,VALID,19.0972,VALID,96,VALID,0.523996,
2004-06-28, 02:22:00,VALID,918.559,VALID,0,VALID,98.4858,VALID,-0.0169808,VALID,19.0548,VALID,98,VALID,0.416016,
2004-06-28, 02:23:00,VALID,918.566,VALID,0,VALID,98.4222,VALID,-0.0509425,VALID,19.023,VALID,98,VALID,0.360243,
2004-06-28, 02:24:00,VALID,918.551,VALID,0,VALID,98.3573,VALID,-0.0169808,VALID,18.9681,VALID,98,VALID,0.146257,
2004-06-28, 02:25:00,VALID,918.539,VALID,0,VALID,98.4196,VALID,0,VALID,18.9321,VALID,98,VALID,0.0316051,
2004-06-28, 02:26:00,VALID,918.538,VALID,0,VALID,98.557,VALID,0,VALID,18.8867,VALID,98,VALID,0,
2004-06-28, 02:27:00,VALID,918.513,VALID,0,VALID,98.6994,VALID,0.0169808,VALID,18.8705,VALID,98,VALID,0,
2004-06-28, 02:28:00,VALID,918.511,VALID,0,VALID,98.4654,VALID,0,VALID,18.8157,VALID,94,VALID,0.441761,
2004-06-28, 02:29:00,VALID,918.49,VALID,0,VALID,99.0847,VALID,0.0169808,VALID,18.7864,VALID,88,VALID,0.861579,
2004-06-28, 02:30:00,VALID,918.467,VALID,0,VALID,99.9079,VALID,0,VALID,18.877,VALID,84,VALID,0.846413,
2004-06-28, 02:31:00,VALID,918.471,VALID,0,VALID,99.9713,VALID,0.0169808,VALID,18.9639,VALID,84,VALID,0.293899,
2004-06-28, 02:32:00,VALID,918.454,VALID,0,VALID,99.7548,VALID,-0.0169808,VALID,18.9937,VALID,84,VALID,0,
2004-06-28, 02:33:00,VALID,918.44,VALID,0,VALID,99.6162,VALID,0,VALID,18.9775,VALID,84,VALID,0.0340909,
2004-06-28, 02:34:00,VALID,918.448,VALID,0,VALID,99.7637,VALID,0,VALID,18.9808,VALID,84,VALID,0.236683,
2004-06-28, 02:35:00,VALID,918.447,VALID,0,VALID,99.807,VALID,0,VALID,19.0225,VALID,84,VALID,0.320126,
2004-06-28, 02:36:00,VALID,918.467,VALID,0,VALID,99.4738,VALID,0,VALID,19.0359,VALID,84,VALID,0.415365,
2004-06-28, 02:37:00,VALID,918.474,VALID,0,VALID,98.7325,VALID,0,VALID,18.8936,VALID,84,VALID,0.444382,
2004-06-28, 02:38:00,VALID,918.479,VALID,0,VALID,99.0733,VALID,0.0169808,VALID,18.8383,VALID,84,VALID,0.528125,
2004-06-28, 02:39:00,VALID,918.49,VALID,0,VALID,99.0949,VALID,0,VALID,18.8251,VALID,84,VALID,0.356424,
2004-06-28, 02:40:00,VALID,918.5,VALID,0,VALID,98.7693,VALID,0,VALID,18.7613,VALID,84,VALID,0.328697,
2004-06-28, 02:41:00,VALID,918.515,VALID,0,VALID,98.9982,VALID,0,VALID,18.7384,VALID,71,VALID,0.378299,
2004-06-28, 02:42:00,VALID,918.514,VALID,0,VALID,99.5132,VALID,0,VALID,18.7968,VALID,47,VALID,0.381177,
2004-06-28, 02:43:00,VALID,918.502,VALID,0,VALID,99.5654,VALID,0.0169808,VALID,18.8288,VALID,23,VALID,0.37862,
2004-06-28, 02:44:00,VALID,918.477,VALID,0,VALID,99.3403,VALID,0.0169808,VALID,18.7836,VALID,23,VALID,0.46766,
2004-06-28, 02:45:00,VALID,918.453,VALID,0,VALID,99.2958,VALID,0,VALID,18.7421,VALID,23,VALID,0.358789,
2004-06-28, 02:46:00,VALID,918.432,VALID,0,VALID,99.737,VALID,0,VALID,18.7675,VALID,23,VALID,0.358285,
2004-06-28, 02:47:00,VALID,918.446,VALID,0,VALID,99.9891,VALID,0,VALID,18.839,VALID,23,VALID,0.330305,
2004-06-28, 02:48:00,VALID,918.453,VALID,0,VALID,100,VALID,0,VALID,18.9068,VALID,23,VALID,0.308503,
2004-06-28, 02:49:00,VALID,918.462,VALID,0,VALID,100,VALID,-0.0169808,VALID,18.9351,VALID,23,VALID,0.3484,
2004-06-28, 02:50:00,VALID,918.473,VALID,0,VALID,100,VALID,0,VALID,18.9577,VALID,23,VALID,0.191592,
2004-06-28, 02:51:00,VALID,918.476,VALID,0,VALID,99.9847,VALID,0.0169808,VALID,18.9584,VALID,23,VALID,0.00568182,
2004-06-28, 02:52:00,VALID,918.451,VALID,0,VALID,99.9341,VALID,0,VALID,18.9416,VALID,23,VALID,0.366832,
2004-06-28, 02:53:00,VALID,918.431,VALID,0,VALID,99.9125,VALID,0,VALID,18.9485,VALID,26,VALID,0.531441,
2004-06-28, 02:54:00,VALID,918.393,VALID,0,VALID,99.7078,VALID,0,VALID,18.9102,VALID,50,VALID,0.699929,
2004-06-28, 02:55:00,VALID,918.383,VALID,0,VALID,99.8573,VALID,0.0169808,VALID,18.8899,VALID,65,VALID,0.979403,
2004-06-28, 02:56:00,VALID,918.34,VALID,0,VALID,100,VALID,0,VALID,18.9485,VALID,79,VALID,1.12367,
2004-06-28, 02:57:00,VALID,918.323,VALID,0,VALID,100,VALID,0,VALID,19.0322,VALID,85,VALID,1.12969,
2004-06-28, 02:58:00,VALID,918.325,VALID,0,VALID,100,VALID,0,VALID,19.0838,VALID,102,VALID,1.06741,
2004-06-28, 02:59:00,VALID,918.341,VALID,0,VALID,100,VALID,0,VALID,19.1352,VALID,113,VALID,0.960405,
2004-06-28, 03:00:00,VALID,918.389,VALID,0,VALID,100,VALID,-0.0339617,VALID,19.1844,VALID,120,VALID,0.662427,
2004-06-28, 03:01:00,VALID,918.439,VALID,0,VALID,99.9491,VALID,0,VALID,19.1936,VALID,153,VALID,0.389101,
2004-06-28, 03:02:00,VALID,918.465,VALID,0,VALID,99.8858,VALID,0,VALID,19.2167,VALID,153,VALID,0.0323401,
2004-06-28, 03:03:00,VALID,918.474,VALID,0,VALID,99.5743,VALID,0.0169808,VALID,19.1936,VALID,153,VALID,0.319965,
2004-06-28, 03:04:00,VALID,918.464,VALID,0,VALID,99.2564,VALID,0,VALID,19.162,VALID,153,VALID,0.242773,
2004-06-28, 03:05:00,VALID,918.471,VALID,0,VALID,98.7579,VALID,0.0169808,VALID,19.0972,VALID,111,VALID,0.437686,
2004-06-28, 03:06:00,VALID,918.454,VALID,0,VALID,98.6562,VALID,-0.0169808,VALID,19.0324,VALID,69,VALID,0.530887,
2004-06-28, 03:07:00,VALID,918.467,VALID,0,VALID,99.1877,VALID,0,VALID,19.0615,VALID,69,VALID,0.628811,
2004-06-28, 03:08:00,VALID,918.48,VALID,0,VALID,99.662,VALID,-0.0169808,VALID,19.1323,VALID,69,VALID,0.713481,
2004-06-28, 03:09:00,VALID,918.484,VALID,0,VALID,99.7269,VALID,-0.0679233,VALID,19.2038,VALID,69,VALID,0.635861,
2004-06-28, 03:10:00,VALID,918.488,VALID,0,VALID,99.6315,VALID,-0.0509425,VALID,19.2586,VALID,69,VALID,0.193229,
2004-06-28, 03:11:00,VALID,918.488,VALID,0,VALID,99.1521,VALID,-0.0169808,VALID,19.2162,VALID,69,VALID,0.213034,
2004-06-28, 03:12:00,VALID,918.465,VALID,0,VALID,98.8685,VALID,-0.0169808,VALID,19.1809,VALID,69,VALID,0.285633,
2004-06-28, 03:13:00,VALID,918.44,VALID,0,VALID,98.9741,VALID,-0.0509425,VALID,19.204,VALID,69,VALID,0.176711,
2004-06-28, 03:14:00,VALID,918.417,VALID,0,VALID,99.0631,VALID,-0.0679233,VALID,19.2527,VALID,69,VALID,0.0234375,
2004-06-28, 03:15:00,VALID,918.392,VALID,0,VALID,98.9436,VALID,-0.0509425,VALID,19.2524,VALID,69,VALID,0,
2004-06-28, 03:16:00,VALID,918.369,VALID,0,VALID,98.8444,VALID,-0.0679233,VALID,19.2425,VALID,69,VALID,0,
2004-06-28, 03:17:00,VALID,918.335,VALID,0,VALID,98.6206,VALID,0,VALID,19.2001,VALID,69,VALID,0,
2004-06-28, 03:18:00,VALID,918.305,VALID,0,VALID,98.3637,VALID,-0.0509425,VALID,19.1521,VALID,69,VALID,0,
2004-06-28, 03:19:00,VALID,918.287,VALID,0,VALID,98.2836,VALID,-0.0339617,VALID,19.1067,VALID,69,VALID,0,
2004-06-28, 03:20:00,VALID,918.275,VALID,0,VALID,98.4438,VALID,-0.0169808,VALID,19.0942,VALID,69,VALID,0,
2004-06-28, 03:21:00,VALID,918.268,VALID,0,VALID,98.693,VALID,-0.0339617,VALID,19.1005,VALID,69,VALID,0,
2004-06-28, 03:22:00,VALID,918.24,VALID,0,VALID,98.824,VALID,-0.0679233,VALID,19.1099,VALID,69,VALID,0.0942951,
2004-06-28, 03:23:00,VALID,918.214,VALID,0,VALID,99.0389,VALID,-0.0509425,VALID,19.1325,VALID,69,VALID,0.304297,
2004-06-28, 03:24:00,VALID,918.162,VALID,0,VALID,99.1941,VALID,-0.0509425,VALID,19.1618,VALID,69,VALID,0.348264,
2004-06-28, 03:25:00,VALID,918.118,VALID,0,VALID,99.1483,VALID,-0.0339617,VALID,19.1519,VALID,74,VALID,0.561047,
2004-06-28, 03:26:00,VALID,918.092,VALID,0,VALID,99.4675,VALID,-0.0339617,VALID,19.1717,VALID,90,VALID,0.651228,
2004-06-28, 03:27:00,VALID,918.076,VALID,0,VALID,99.662,VALID,0,VALID,19.2065,VALID,90,VALID,0.718928,
2004-06-28, 03:28:00,VALID,918.07,VALID,0,VALID,99.4433,VALID,-0.0339617,VALID,19.213,VALID,90,VALID,0.676215,
2004-06-28, 03:29:00,VALID,918.049,VALID,0,VALID,99.3161,VALID,-0.0509425,VALID,19.1779,VALID,90,VALID,0.710938,
2004-06-28, 03:30:00,VALID,918.021,VALID,0,VALID,99.91,VALID,-0.0169808,VALID,19.2462,VALID,90,VALID,0.84003,
2004-06-28, 03:31:00,VALID,918.011,VALID,0,VALID,99.8795,VALID,-0.0679233,VALID,19.3426,VALID,93,VALID,0.893973,
2004-06-28, 03:32:00,VALID,918.016,VALID,0,VALID,99.4522,VALID,-0.0339617,VALID,19.4005,VALID,114,VALID,1.03016,
2004-06-28, 03:33:00,VALID,918.03,VALID,0,VALID,98.8049,VALID,-0.0509425,VALID,19.3848,VALID,134,VALID,1.41443,
2004-06-28, 03:34:00,VALID,918.033,VALID,0,VALID,98.618,VALID,-0.0339617,VALID,19.3361,VALID,136,VALID,1.41602,
2004-06-28, 03:35:00,VALID,918.046,VALID,0,VALID,98.6218,VALID,-0.0849042,VALID,19.2683,VALID,139,VALID,1.38645,
2004-06-28, 03:36:00,VALID,918.065,VALID,0,VALID,98.6129,VALID,-0.0169808,VALID,19.2162,VALID,135,VALID,1.20774,